Warroad, MN

10:50 PM CST on February 07, 2016 (GMT -0600)
Warroad International-Carlson

Weather History for KRRT - October, 2012

Change the Weather History Date:

Wednesday, October 17, 2012

  Actual Average Record
Temperature  
Mean Temperature 48 °F -  
Max Temperature 51 °F 48 °F 79 °F (1963)
Min Temperature 46 °F 30 °F 12 °F (1952)
Degree Days  
Heating Degree Days 16    
Moisture  
Dew Point 45 °F    
Average Humidity 87    
Maximum Humidity 93    
Minimum Humidity 76    
Precipitation  
Precipitation 0.48 in - - ()
Sea Level Pressure  
Sea Level Pressure 29.14 in    
Wind  
Wind Speed 7 mph (East)    
Max Wind Speed 14 mph    
Max Gust Speed 17 mph    
Visibility 7 miles    
Events Rain    
Averages and records for this station are not official NWS values.
T = Trace of Precipitation, MM = Missing Value Source: NWS Daily Summary

Daily Weather History Graph

Daily Weather History Graph

Search for Another Location

Airport or City:

Trip Planner

Search our weather history database for the weather conditions in past years. The results will help you decide how hot, cold, wet, or windy it might be!

Date:

Astronomy

Oct. 17, 2012 Rise Set
Actual Time 7:45 AM CDT 6:26 PM CDT
Civil Twilight 7:13 AM CDT 6:58 PM CDT
Nautical Twilight 6:37 AM CDT 7:35 PM CDT
Astronomical Twilight 6:00 AM CDT 8:11 PM CDT
Moon 10:37 AM CDT (10/17) 7:46 PM CDT (10/17)
Length of Visible Light 11h 44m
Length of Day
10h 40m
Waxing Crescent, 7% of the Moon is Illuminated
Oct 17
Waxing Crescent
Oct 21
First Quarter
Oct 29
Full
Nov 6
Last Quarter
Nov 13
New

Hourly Weather History & Observations

Time (CDT) Temp. Windchill Dew Point Humidity Pressure Visibility Wind Dir Wind Speed Gust Speed Precip Events Conditions
12:14 AM 48.2 °F - 42.8 °F 82% 29.29 in 10.0 mi ESE 3.5 mph - N/A   Clear
12:34 AM 48.2 °F - 42.8 °F 82% 29.29 in 10.0 mi ESE 4.6 mph - N/A   Clear
12:54 AM 46.4 °F - 42.8 °F 87% 29.28 in 10.0 mi Calm Calm - N/A   Clear
1:14 AM 46.4 °F 43.5 °F 42.8 °F 87% 29.27 in 10.0 mi East 5.8 mph - N/A   Clear
1:34 AM 46.4 °F 42.9 °F 42.8 °F 87% 29.27 in 10.0 mi East 6.9 mph - N/A   Clear
1:54 AM 46.4 °F 44.3 °F 42.8 °F 87% 29.27 in 10.0 mi East 4.6 mph - N/A   Clear
2:14 AM 46.4 °F 44.3 °F 42.8 °F 87% 29.26 in 10.0 mi East 4.6 mph - N/A   Clear
2:34 AM 46.4 °F 44.3 °F 42.8 °F 87% 29.26 in 10.0 mi East 4.6 mph - N/A   Clear
2:54 AM 46.4 °F 42.4 °F 42.8 °F 87% 29.26 in 10.0 mi East 8.1 mph - N/A   Clear
3:14 AM 46.4 °F 43.5 °F 42.8 °F 87% 29.24 in 10.0 mi East 5.8 mph - N/A   Clear
3:34 AM 48.2 °F - 42.8 °F 82% 29.23 in 10.0 mi East 6.9 mph - N/A   Scattered Clouds
3:54 AM 48.2 °F - 44.6 °F 87% 29.23 in 10.0 mi East 8.1 mph - N/A   Mostly Cloudy
4:14 AM 48.2 °F - 44.6 °F 87% 29.22 in 10.0 mi East 5.8 mph - N/A   Scattered Clouds
4:34 AM 48.2 °F - 44.6 °F 87% 29.22 in 10.0 mi East 5.8 mph - N/A   Mostly Cloudy
4:54 AM 48.2 °F - 44.6 °F 87% 29.21 in 10.0 mi East 4.6 mph - N/A   Scattered Clouds
5:14 AM 48.2 °F - 44.6 °F 87% 29.21 in 10.0 mi East 5.8 mph - N/A   Clear
5:34 AM 48.2 °F - 44.6 °F 87% 29.21 in 10.0 mi ESE 5.8 mph - N/A   Scattered Clouds
5:54 AM 48.2 °F - 44.6 °F 87% 29.20 in 10.0 mi ESE 5.8 mph - N/A   Mostly Cloudy
6:14 AM 51.8 °F - 44.6 °F 76% 29.21 in 10.0 mi South 3.5 mph - N/A   Overcast
6:34 AM 50.0 °F - 44.6 °F 82% 29.20 in 10.0 mi Calm Calm - N/A   Overcast
6:54 AM 50.0 °F - 44.6 °F 82% 29.19 in 10.0 mi East 3.5 mph - N/A   Overcast
7:14 AM 50.0 °F - 44.6 °F 82% 29.19 in 10.0 mi East 5.8 mph - N/A   Overcast
7:34 AM 48.2 °F - 44.6 °F 87% 29.18 in 10.0 mi East 6.9 mph - N/A   Overcast
7:54 AM 48.2 °F - 44.6 °F 87% 29.18 in 10.0 mi East 9.2 mph - N/A   Mostly Cloudy
8:14 AM 48.2 °F - 44.6 °F 87% 29.17 in 10.0 mi East 9.2 mph - N/A   Overcast
8:34 AM 48.2 °F - 44.6 °F 87% 29.17 in 10.0 mi East 8.1 mph - N/A   Overcast
8:54 AM 48.2 °F - 44.6 °F 87% 29.18 in 10.0 mi ESE 6.9 mph - N/A   Drizzle
9:14 AM 48.2 °F - 44.6 °F 87% 29.17 in 7.0 mi ESE 8.1 mph - N/A Rain Rain
9:34 AM 48.2 °F - 44.6 °F 87% 29.18 in 10.0 mi ESE 9.2 mph - N/A   Drizzle
9:54 AM 48.2 °F - 44.6 °F 87% 29.17 in 10.0 mi ESE 10.4 mph - N/A   Light Drizzle
10:14 AM 48.2 °F - 44.6 °F 87% 29.17 in 10.0 mi ESE 10.4 mph - N/A   Overcast
10:34 AM 48.2 °F - 44.6 °F 87% 29.17 in 7.0 mi ESE 10.4 mph - 0.01 in   Light Drizzle
10:54 AM 48.2 °F - 44.6 °F 87% 29.17 in 5.0 mi ESE 8.1 mph - 0.01 in Rain Light Rain
11:14 AM 48.2 °F - 44.6 °F 87% 29.16 in 7.0 mi ESE 8.1 mph - N/A Rain Light Rain
11:54 AM 50.0 °F - 46.4 °F 87% 29.15 in 4.0 mi ESE 5.8 mph - 0.01 in Rain Light Rain
12:14 PM 48.2 °F - 46.4 °F 93% 29.14 in 4.0 mi East 6.9 mph - 0.03 in Rain Rain
12:34 PM 48.2 °F - 44.6 °F 87% 29.13 in 3.0 mi East 6.9 mph - 0.05 in Rain Light Rain
12:54 PM 48.2 °F - 44.6 °F 87% 29.12 in 2.5 mi East 8.1 mph - 0.07 in Rain Light Rain
1:14 PM 48.2 °F - 44.6 °F 87% 29.12 in 2.5 mi ENE 9.2 mph - 0.03 in Rain Light Rain
1:34 PM 48.2 °F - 44.6 °F 87% 29.10 in 2.0 mi ENE 8.1 mph - 0.05 in Rain Light Rain
1:54 PM 48.2 °F - 44.6 °F 87% 29.09 in 1.5 mi NE 5.8 mph - 0.08 in Rain Light Rain
2:14 PM 48.2 °F - 44.6 °F 87% 29.09 in 1.8 mi ENE 9.2 mph - 0.04 in Rain Rain
2:34 PM 46.4 °F 42.4 °F 44.6 °F 93% 29.09 in 1.8 mi NE 8.1 mph - 0.09 in Rain Rain
2:54 PM 48.2 °F - 44.6 °F 87% 29.08 in 2.0 mi ENE 9.2 mph - 0.12 in Rain Rain
3:14 PM 48.2 °F - 44.6 °F 87% 29.07 in 2.5 mi NE 11.5 mph - 0.04 in Rain Rain
3:34 PM 48.2 °F - 44.6 °F 87% 29.07 in 2.5 mi NE 12.7 mph - 0.08 in Rain Rain
3:54 PM 48.2 °F - 44.6 °F 87% 29.06 in 2.5 mi NE 10.4 mph 17.3 mph 0.11 in Rain Light Rain
4:14 PM 48.2 °F - 44.6 °F 87% 29.06 in 3.0 mi NE 11.5 mph - 0.04 in Rain Rain
4:34 PM 48.2 °F - 44.6 °F 87% 29.05 in 2.5 mi ENE 9.2 mph - 0.04 in   Drizzle
4:54 PM 48.2 °F - 44.6 °F 87% 29.05 in 2.5 mi NE 9.2 mph - 0.05 in   Drizzle
5:14 PM 48.2 °F - 44.6 °F 87% 29.05 in 2.5 mi ENE 9.2 mph - N/A   Drizzle
5:33 PM 48.2 °F - 44.6 °F 87% 29.05 in 2.5 mi ENE 12.7 mph - 0.01 in   Drizzle
5:54 PM 48.2 °F - 44.6 °F 87% 29.05 in 2.5 mi ENE 11.5 mph - 0.01 in   Drizzle
6:14 PM 48.2 °F - 44.6 °F 87% 29.05 in 2.0 mi ENE 11.5 mph - 0.01 in   Drizzle
6:33 PM 48.2 °F - 44.6 °F 87% 29.04 in 2.0 mi ENE 12.7 mph - 0.01 in   Drizzle
6:54 PM 48.2 °F - 44.6 °F 87% 29.05 in 2.0 mi ENE 10.4 mph - 0.02 in   Drizzle
7:14 PM 48.2 °F - 44.6 °F 87% 29.04 in 1.2 mi ENE 8.1 mph - N/A   Drizzle
7:34 PM 48.2 °F - 44.6 °F 87% 29.05 in 1.8 mi East 5.8 mph - N/A   Light Drizzle
7:54 PM 48.2 °F - 44.6 °F 87% 29.05 in 4.0 mi East 5.8 mph - N/A   Overcast
8:14 PM 48.2 °F - 44.6 °F 87% 29.05 in 3.0 mi East 8.1 mph - N/A Rain Heavy Rain
8:34 PM 48.2 °F - 44.6 °F 87% 29.05 in 5.0 mi ESE 6.9 mph - N/A   Overcast
8:54 PM 50.0 °F - 46.4 °F 87% 29.05 in 7.0 mi SE 8.1 mph - N/A   Overcast
9:14 PM 50.0 °F - 46.4 °F 87% 29.06 in 10.0 mi ESE 9.2 mph - N/A   Overcast
9:34 PM 50.0 °F - 46.4 °F 87% 29.07 in 3.0 mi ESE 9.2 mph - N/A   Overcast
9:54 PM 50.0 °F - 46.4 °F 87% 29.08 in 3.0 mi SE 10.4 mph - N/A Rain Light Rain
10:14 PM 50.0 °F - 46.4 °F 87% 29.09 in 10.0 mi SE 12.7 mph - N/A   Overcast
10:34 PM 48.2 °F - 46.4 °F 93% 29.09 in 5.0 mi ESE 8.1 mph - N/A   Overcast
10:54 PM 48.2 °F - 44.6 °F 87% 29.10 in 7.0 mi ESE 9.2 mph - N/A   Overcast
11:14 PM 48.2 °F - 44.6 °F 87% 29.10 in 10.0 mi ESE 12.7 mph - N/A   Overcast
11:34 PM 48.2 °F - 44.6 °F 87% 29.10 in 10.0 mi SE 13.8 mph - N/A   Overcast
11:54 PM 48.2 °F - 44.6 °F 87% 29.11 in 10.0 mi ESE 11.5 mph 17.3 mph N/A   Overcast